Погода в Семичном

Россия / Ростовская область     47°29′20″N   42°59′23″E
темп.,
°C
ветер,
м/с
пор.,
м/с
влажн.,
%
обл.,
%
осадки,
мм/ч
давл.,
гПа
погр.,
м
18 апреля, вс
вс1800:00+9юз227432 0.0 102113
03:00+7сз22745 0.0 102111
06:00+8в117611 0.0 102010
09:00+12юв346684 0.0 1019500
12:00+12юз2369100 0.0 1019329
15:00+12ю1268100 0.3 1018416
18:00+10с0091100 1.1 101845
21:00+10в2295100 2.0 101898
19 апреля, пн
пн1900:00+10ююз1196100 0.1 101732
03:00+9зсз239675 0.1 1017100
06:00+9ссз2295100 0.1 1016123
09:00+12ю107957 0.1 1017558
12:00+16юз1260100 0.1 10161318
15:00+15юз3368100 0.1 1015408
18:00+14св1171100 0.0 101411
21:00+13ю2382100 0.0 101577
20 апреля, вт
вт2000:00+12юв2288100 0.0 101478
03:00+11ююв3597100 0.0 1013137
06:00+12вюв51197100 1.0 1011473
09:00+14вюв81490100 2.3 1009754
12:00+18вюв111673100 0.2 10081115
15:00+18юв121966100 0.3 10061310
18:00+17юв10176682 0.1 1006925
21:00+14ююз71288100 3.8 1008857
21 апреля, ср
ср2100:00+12ю0389100 9.1 1011201
03:00+11ю71293100 12.5 1013743
06:00+10юз71079100 0.3 10151027
09:00+11юз71073100 0.3 10171159
12:00+14зюз796168 0.2 10181554
15:00+14зюз5667100 0.3 10191111
18:00+13ююз467058 0.2 1021414
21:00+10ююз34797 0.3 102246
22 апреля, чт
чт2200:00+9юз358710 0.0 102371
03:00+8з228764 0.0 102423
06:00+9зсз11756 0.0 102418
09:00+13с11535 0.0 1025524
12:00+16с2242100 0.0 10251541
15:00+17ссв324168 0.0 10241785
18:00+16ссв235441 0.0 102473
21:00+12всв226329 0.0 102524